Date,TemperatureHighF,TemperatureAvgF,TemperatureLowF,DewpointHighF,DewpointAvgF,DewpointLowF,HumidityHigh,HumidityAvg,HumidityLow,PressureMaxIn,PressureMinIn,WindSpeedMaxMPH,WindSpeedAvgMPH,GustSpeedMaxMPH,PrecipitationSumIn
2013-3-1,58,44,30,22,15,6,41,32,23,30.44,30.22,21,7,27,0.00
2013-3-2,66,49,30,26,21,17,60,36,19,30.45,30.12,19,4,19,0.00
2013-3-3,66,51,34,25,18,9,50,30,11,30.12,29.75,26,5,29,0.00
2013-3-4,61,52,41,25,22,18,43,30,23,30.06,29.66,29,6,33,0.00
2013-3-5,58,45,29,22,18,10,66,36,15,30.34,30.04,13,4,16,0.00
2013-3-6,65,51,40,28,22,14,40,32,23,30.13,29.83,18,3,19,0.00
2013-3-7,68,54,34,25,19,10,40,26,18,30.03,29.76,16,3,29,0.00
2013-3-8,58,46,38,41,26,13,84,50,24,29.87,29.69,27,5,28,0.04
2013-3-9,43,36,30,33,24,18,84,61,37,30.04,29.73,24,6,30,0.00
2013-3-10,50,38,25,27,22,16,86,58,30,30.22,30.03,18,4,23,0.00
2013-3-11,60,44,26,21,18,14,62,37,17,30.25,29.97,19,6,23,0.00
2013-3-12,66,51,35,26,22,18,53,34,21,30.19,29.98,22,6,26,0.00
2013-3-13,69,52,32,29,23,18,61,36,19,30.34,30.10,14,4,22,0.00
2013-3-14,74,58,40,27,22,14,45,27,14,30.27,30.03,11,3,13,0.00
2013-3-15,77,61,40,24,19,14,35,21,12,30.11,29.74,14,3,14,0.00
2013-3-16,70,58,45,34,23,15,53,27,17,29.81,29.60,30,6,30,0.00
2013-3-17,67,53,38,34,24,5,70,38,9,29.81,29.56,33,7,33,0.00
2013-3-18,65,52,37,16,11,6,32,20,13,29.93,29.74,24,6,29,0.00
2013-3-19,61,54,45,19,16,6,31,22,17,30.13,29.87,18,5,29,0.00
2013-3-20,62,49,32,29,20,13,48,32,22,30.25,29.75,15,5,20,0.00
2013-3-21,69,58,49,33,22,10,48,28,10,29.75,29.45,31,10,35,0.00
2013-3-22,66,51,36,28,15,8,40,24,15,29.78,29.52,23,6,28,0.00
2013-3-23,49,38,27,26,4,-10,48,24,13,30.21,29.58,37,11,39,0.00
2013-3-24,50,36,18,6,-1,-10,31,20,15,30.30,29.93,27,6,30,0.00
2013-3-25,54,38,22,14,9,0,52,30,20,30.31,30.07,20,6,28,0.00
2013-3-26,64,47,29,18,12,6,37,26,17,30.23,29.90,20,6,22,0.00
2013-3-27,70,56,40,21,16,12,33,21,13,30.00,29.81,20,5,30,0.00
2013-3-28,71,59,41,27,19,10,29,21,14,30.02,29.83,24,4,35,0.00
2013-3-29,72,60,47,26,22,18,31,23,16,30.03,29.86,15,4,24,0.00
2013-3-30,67,54,42,29,22,17,38,29,21,30.04,29.84,14,3,19,0.00
2013-3-31,71,60,48,33,29,25,46,32,21,29.97,29.78,14,3,18,0.00